Date String (YYYY-MM-DD hh:mm:ss) UTC,Instrument flags,Ambient pressure (hPa),Sample flow (lpm),Bypass flow (lpm),Sample temperature (°C),Ambient temperature (°C),ASC tube jacket temperature (°C),LED temperature (°C),Box temperature (°C),Sample RH (%),Span deviation,Mass concentration (μg/m³),Mass concentration (μg/m³),Mass concentration (μg/m³)
DateTimeUTC,F1_M11,P_M11,Q1_M11,Q2_M11,T1_M11,T2_M11,T3_M11,T4_M11,T5_M11,U1_M11,ZSPAN_M11,X0_M11,X2_M11,X1_M11
2023-03-09 22:00:00,,0824.7,4.99,0.00,22.8,21.7,00.0,31.5,24.7,06.0,0000.0,0003.18,0000.91,0000.54
2023-03-09 22:01:00,,0824.6,5.01,0.00,22.9,21.7,00.0,31.5,24.7,06.0,0000.0,0003.17,0000.93,0000.54
2023-03-09 22:02:00,,0824.7,5.00,0.00,22.9,21.7,00.0,31.5,24.8,05.9,0000.0,0002.97,0000.94,0000.55
2023-03-09 22:03:00,,0824.8,4.99,0.00,22.9,21.8,00.0,31.5,24.8,05.9,0000.0,0003.03,0000.95,0000.55
2023-03-09 22:04:00,,0824.9,4.98,0.00,22.9,21.8,00.0,31.5,24.7,05.7,0000.0,0002.96,0000.94,0000.55
2023-03-09 22:05:00,,0825.0,5.00,0.00,22.9,21.7,00.0,31.5,24.7,05.6,0000.0,0002.98,0000.95,0000.55
2023-03-09 22:06:00,,0825.0,5.00,0.00,22.9,21.7,00.0,31.5,24.7,05.7,0000.0,0003.06,0000.96,0000.54
2023-03-09 22:07:00,,0825.0,5.00,0.00,22.8,21.7,00.0,31.5,24.7,05.6,0000.0,0003.02,0000.94,0000.53
2023-03-09 22:08:00,,0825.0,5.00,0.00,22.8,21.6,00.0,31.5,24.7,05.6,0000.0,0003.09,0000.97,0000.54
2023-03-09 22:09:00,,0824.9,5.01,0.00,22.8,21.6,00.0,31.5,24.7,05.6,0000.0,0002.15,0000.95,0000.54
2023-03-09 22:10:00,,0824.9,5.00,0.00,22.8,21.6,00.0,31.5,24.7,05.6,0000.0,0002.00,0000.91,0000.53
2023-03-09 22:11:00,,0824.9,5.00,0.00,22.8,21.6,00.0,31.5,24.7,05.8,0000.0,0003.18,0000.86,0000.52
2023-03-09 22:12:00,,0824.9,5.01,0.00,22.9,21.6,00.0,31.5,24.7,05.8,0000.0,0003.15,0000.85,0000.52
2023-03-09 22:13:00,,0824.9,5.00,0.00,22.9,21.7,00.0,31.6,24.7,05.7,0000.0,0003.13,0000.82,0000.52
2023-03-09 22:14:00,,0824.9,5.00,0.00,22.9,21.7,00.0,31.6,24.8,05.7,0000.0,0003.42,0000.81,0000.52
2023-03-09 22:15:00,,0824.9,5.00,0.00,22.9,21.8,00.0,31.6,24.8,05.7,0000.0,0004.12,0000.80,0000.51
2023-03-09 22:16:00,,0824.8,4.99,0.00,22.9,21.8,00.0,31.6,24.8,05.6,0000.0,0004.10,0000.79,0000.50
2023-03-09 22:17:00,,0824.7,5.00,0.00,22.9,21.8,00.0,31.6,24.8,05.5,0000.0,0003.98,0000.78,0000.51
2023-03-09 22:18:00,,0824.7,5.01,0.00,22.9,21.8,00.0,31.6,24.9,05.6,0000.0,0004.06,0000.81,0000.52
2023-03-09 22:19:00,,0824.9,4.99,0.00,23.0,21.8,00.0,31.6,24.9,05.8,0000.0,0004.02,0000.80,0000.51
2023-03-09 22:20:00,,0824.9,4.99,0.00,23.0,21.8,00.0,31.6,24.8,05.8,0000.0,0003.94,0000.78,0000.51
2023-03-09 22:21:00,,0824.7,5.01,0.00,23.0,21.8,00.0,31.6,24.8,05.7,0000.0,0004.41,0000.79,0000.51
2023-03-09 22:22:00,,0824.6,5.00,0.00,23.0,21.9,00.0,31.6,24.9,05.5,0000.0,0004.50,0000.78,0000.52
2023-03-09 22:23:00,,0824.6,5.00,0.00,23.0,21.9,00.0,31.6,24.9,05.5,0000.0,0004.03,0000.82,0000.52
2023-03-09 22:24:00,,0824.7,5.00,0.00,23.0,21.9,00.0,31.6,24.9,05.5,0000.0,0004.07,0000.84,0000.52
2023-03-09 22:25:00,,0824.7,4.99,0.00,23.0,21.9,00.0,31.7,24.9,05.5,0000.0,0004.03,0000.89,0000.52
2023-03-09 22:26:00,,0824.8,5.00,0.00,23.0,22.0,00.0,31.7,24.9,05.4,0000.0,0002.89,0000.88,0000.52
2023-03-09 22:27:00,,0824.9,5.00,0.00,23.0,22.0,00.0,31.7,24.9,05.4,0000.0,0003.08,0000.87,0000.52
2023-03-09 22:28:00,,0824.9,5.00,0.00,23.1,22.0,00.0,31.7,24.9,05.4,0000.0,0003.13,0000.87,0000.52
2023-03-09 22:29:00,,0824.9,5.01,0.00,23.1,22.0,00.0,31.7,24.9,05.4,0000.0,0003.11,0000.86,0000.52
2023-03-09 22:30:00,,0824.9,5.01,0.00,23.1,22.0,00.0,31.7,24.9,05.4,0000.0,0003.23,0000.84,0000.51
2023-03-09 22:31:00,,0824.9,5.00,0.00,23.1,22.0,00.0,31.7,25.0,05.4,0000.0,0003.26,0000.82,0000.51
2023-03-09 22:32:00,,0824.9,5.00,0.00,23.1,22.0,00.0,31.7,25.0,05.4,0000.0,0003.32,0000.84,0000.50
2023-03-09 22:33:00,,0824.9,5.00,0.00,23.1,22.0,00.0,31.7,25.0,05.4,0000.0,0002.35,0000.87,0000.49
2023-03-09 22:34:00,,0824.9,5.00,0.00,23.2,22.1,00.0,31.7,25.0,05.4,0000.0,0002.08,0000.88,0000.48
2023-03-09 22:35:00,,0824.9,5.00,0.00,23.2,22.1,00.0,31.7,25.0,05.4,0000.0,0002.10,0000.87,0000.48
2023-03-09 22:36:00,,0824.9,4.99,0.00,23.2,22.1,00.0,31.7,25.0,05.4,0000.0,0002.04,0000.83,0000.47
2023-03-09 22:37:00,,0824.9,4.99,0.00,23.2,22.1,00.0,31.8,25.1,05.4,0000.0,0002.00,0000.82,0000.47
2023-03-09 22:38:00,,0824.9,5.00,0.00,23.2,22.1,00.0,31.8,25.1,05.4,0000.0,0002.14,0000.84,0000.47
2023-03-09 22:39:00,,0824.9,4.99,0.00,23.2,22.0,00.0,31.8,25.1,05.4,0000.0,0002.11,0000.83,0000.47
2023-03-09 22:40:00,,0824.9,5.00,0.00,23.2,22.0,00.0,31.8,25.1,05.4,0000.0,0002.10,0000.83,0000.47
2023-03-09 22:41:00,,0824.8,5.00,0.00,23.2,22.1,00.0,31.8,25.0,05.4,0000.0,0002.00,0000.84,0000.47
2023-03-09 22:42:00,,0824.9,5.00,0.00,23.2,22.1,00.0,31.8,25.1,05.5,0000.0,0002.04,0000.85,0000.47
2023-03-09 22:43:00,,0824.9,5.00,0.00,23.3,22.1,00.0,31.8,25.1,05.4,0000.0,0002.07,0000.86,0000.48
2023-03-09 22:44:00,,0824.9,4.99,0.00,23.3,22.2,00.0,31.9,25.1,05.5,0000.0,0002.05,0000.85,0000.49
2023-03-09 22:45:00,,0825.0,5.01,0.00,23.3,22.2,00.0,31.9,25.1,05.5,0000.0,0002.03,0000.84,0000.49
2023-03-09 22:46:00,,0824.9,5.00,0.00,23.3,22.2,00.0,31.9,25.1,05.6,0000.0,0001.90,0000.80,0000.50
2023-03-09 22:47:00,,0825.0,4.99,0.00,23.3,22.2,00.0,31.9,25.1,05.7,0000.0,0002.66,0000.81,0000.49
2023-03-09 22:48:00,,0825.1,5.00,0.00,23.3,22.2,00.0,31.9,25.1,05.7,0000.0,0003.72,0000.82,0000.49
2023-03-09 22:49:00,,0825.1,4.99,0.00,23.3,22.2,00.0,31.9,25.1,05.5,0000.0,0003.43,0000.82,0000.49
2023-03-09 22:50:00,,0825.1,5.00,0.00,23.3,22.1,00.0,31.9,25.1,05.5,0000.0,0003.47,0000.85,0000.49
2023-03-09 22:51:00,,0825.1,5.00,0.00,23.3,22.1,00.0,31.9,25.0,05.4,0000.0,0003.44,0000.83,0000.48
2023-03-09 22:52:00,,0825.1,5.00,0.00,23.3,22.0,00.0,31.9,25.1,05.5,0000.0,0003.37,0000.82,0000.48
2023-03-09 22:53:00,,0825.1,5.00,0.00,23.3,22.0,00.0,31.9,25.0,05.7,0000.0,0003.56,0000.85,0000.48
2023-03-09 22:54:00,,0825.1,5.00,0.00,23.3,22.0,00.0,31.9,25.0,05.6,0000.0,0003.63,0000.86,0000.47
2023-03-09 22:55:00,,0825.1,5.00,0.00,23.3,22.0,00.0,31.9,25.0,05.5,0000.0,0004.82,0000.86,0000.46
2023-03-09 22:56:00,,0825.1,5.00,0.00,23.2,22.0,00.0,31.9,25.0,05.5,0000.0,0005.12,0000.86,0000.46
2023-03-09 22:57:00,,0825.2,5.01,0.00,23.2,22.0,00.0,31.9,25.0,05.5,0000.0,0005.45,0000.86,0000.45
2023-03-09 22:58:00,,0825.2,4.99,0.00,23.2,22.0,00.0,31.9,25.0,05.5,0000.0,0005.50,0000.86,0000.45
2023-03-09 22:59:00,,0825.1,4.99,0.00,23.2,22.0,00.0,31.9,25.0,05.5,0000.0,0004.41,0000.84,0000.45
